Location: Newark
(47.0847°N, 2.3941°E)
Time: 23:08:40
(UTC+00:00)

Envisat - Visible Passes

Search period start: 22 September 2019 00:00
Search period end: 02 October 2019 00:00
Orbit: 764 x 766 km, 98.1° (Epoch: 22 September)

Date Brightness Start Highest point End Pass type
(mag) Time Alt. Az. Time Alt. Az. Time Alt. Az.
22 Sep 3.6 18:11:02 10° S 18:16:04 63° W 18:21:07 10° NNW visible
23 Sep 5.9 19:15:19 10° SW 19:18:46 18° W 19:22:15 10° NW visible
24 Sep 4.7 18:36:59 10° SSW 18:41:40 37° W 18:46:24 10° NNW visible
25 Sep 6.4 19:43:47 10° W 19:44:39 10° W 19:45:31 10° WNW visible
26 Sep 5.6 19:03:27 10° SW 19:07:24 23° W 19:11:22 10° NW visible
27 Sep 4.2 18:25:29 10° S 18:30:21 46° W 18:35:16 10° NNW visible
28 Sep 6.1 19:30:48 10° WSW 19:33:13 13° W 19:35:39 10° WNW visible
29 Sep 5.2 18:51:43 10° SSW 18:56:02 28° W 19:00:23 10° NW visible
30 Sep 3.8 18:14:04 10° S 18:19:03 58° W 18:24:05 10° NNW visible
01 Oct 5.9 19:18:35 10° SW 19:21:49 17° W 19:25:03 10° NW visible
